TimeIST,TemperatureF,Dew PointF,Humidity,Sea Level PressureIn,VisibilityMPH,Wind Direction,Wind SpeedMPH,Gust SpeedMPH,PrecipitationIn,Events,Conditions,WindDirDegrees,DateUTC
12:10 AM,82.4,73.4,74,29.86,1.6,East,3.5,-,N/A,,Haze,90,2012-10-23 18:40:00
12:40 AM,82.4,73.4,74,29.86,1.7,Calm,Calm,-,N/A,,Haze,0,2012-10-23 19:10:00
1:10 AM,82.4,73.4,74,29.86,1.7,ENE,3.5,-,N/A,,Haze,60,2012-10-23 19:40:00
1:40 AM,82.4,73.4,74,29.83,1.6,NE,4.6,-,N/A,,Haze,50,2012-10-23 20:10:00
2:10 AM,82.4,71.6,70,29.83,1.6,East,4.6,-,N/A,,Haze,80,2012-10-23 20:40:00
2:30 AM,79,74,79,29.84,1,Calm,Calm,,,,Haze,,2012-10-23 21:00:00
2:40 AM,82.4,73.4,74,29.83,1.7,NE,3.5,-,N/A,,Haze,40,2012-10-23 21:10:00
3:10 AM,82.4,71.6,70,29.83,1.7,NNE,5.8,-,N/A,,Haze,30,2012-10-23 21:40:00
3:40 AM,82.4,71.6,70,29.83,1.7,NE,5.8,-,N/A,,Haze,40,2012-10-23 22:10:00
4:10 AM,82.4,71.6,70,29.83,1.7,NNE,5.8,-,N/A,,Haze,30,2012-10-23 22:40:00
4:40 AM,82.4,71.6,70,29.83,1.7,ENE,4.6,-,N/A,,Haze,70,2012-10-23 23:10:00
5:30 AM,78,74,83,29.84,1,Calm,Calm,,,,Haze,,2012-10-24 00:00:00
5:40 AM,82.4,71.6,70,29.83,1.9,ENE,5.8,-,N/A,,Haze,60,2012-10-24 00:10:00
6:10 AM,82.4,71.6,70,29.83,1.9,East,5.8,-,N/A,,Haze,80,2012-10-24 00:40:00
6:40 AM,82.4,71.6,70,29.86,1.6,ENE,3.5,-,N/A,,Haze,70,2012-10-24 01:10:00
7:10 AM,82.4,73.4,74,29.86,1.6,SE,3.5,-,N/A,,Haze,130,2012-10-24 01:40:00
7:40 AM,82.4,71.6,70,29.89,1.6,East,5.8,-,N/A,,Haze,90,2012-10-24 02:10:00
8:10 AM,82.4,73.4,74,29.89,1.6,ESE,5.8,-,N/A,,Haze,120,2012-10-24 02:40:00
8:30 AM,82,74,70,29.90,1,Calm,Calm,,,,Haze,,2012-10-24 03:00:00
8:40 AM,82.4,73.4,74,29.89,1.4,SE,5.8,-,N/A,,Haze,130,2012-10-24 03:10:00
9:10 AM,84.2,73.4,70,29.89,1.6,ESE,4.6,-,N/A,,Smoke,120,2012-10-24 03:40:00
9:40 AM,84.2,73.4,70,29.92,1.6,East,6.9,-,N/A,,Smoke,90,2012-10-24 04:10:00
10:10 AM,86.0,75.2,70,29.92,1.6,East,5.8,-,N/A,,Smoke,100,2012-10-24 04:40:00
10:40 AM,87.8,73.4,62,29.89,1.7,SE,6.9,-,N/A,,Smoke,130,2012-10-24 05:10:00
11:30 AM,90,71,45,29.88,1,SE,4.6,,,,Smoke,140,2012-10-24 06:00:00
11:40 AM,89.6,71.6,55,29.89,1.9,SE,6.9,-,N/A,,Smoke,140,2012-10-24 06:10:00
12:10 PM,89.6,69.8,52,29.86,2.2,SE,8.1,-,N/A,,Smoke,130,2012-10-24 06:40:00
12:40 PM,91.4,69.8,49,29.83,2.2,SE,8.1,-,N/A,,Smoke,130,2012-10-24 07:10:00
1:10 PM,91.4,71.6,52,29.83,2.2,East,9.2,-,N/A,,Smoke,100,2012-10-24 07:40:00
1:40 PM,91.4,71.6,52,29.80,2.2,SSW,8.1,-,N/A,,Smoke,210,2012-10-24 08:10:00
2:10 PM,93.2,69.8,46,29.80,2.5,SSW,9.2,-,N/A,,Smoke,210,2012-10-24 08:40:00
2:30 PM,95,69,34,29.80,2,South,4.6,,,,Scattered Clouds,180,2012-10-24 09:00:00
2:40 PM,91.4,69.8,49,29.80,2.8,SW,5.8,-,N/A,,Smoke,220,2012-10-24 09:10:00
3:10 PM,91.4,71.6,52,29.77,2.8,West,9.2,-,N/A,,Smoke,270,2012-10-24 09:40:00
3:40 PM,91.4,71.6,52,29.77,2.8,WSW,10.4,-,N/A,,Smoke,250,2012-10-24 10:10:00
4:10 PM,91.4,69.8,49,29.77,2.8,WSW,10.4,-,N/A,,Smoke,250,2012-10-24 10:40:00
4:40 PM,89.6,69.8,52,29.77,2.8,WSW,10.4,-,N/A,,Smoke,240,2012-10-24 11:10:00
5:10 PM,89.6,71.6,55,29.80,2.5,WSW,9.2,-,N/A,,Smoke,250,2012-10-24 11:40:00
5:30 PM,89,73,51,29.80,2,Calm,Calm,,,,Scattered Clouds,,2012-10-24 12:00:00
5:40 PM,87.8,71.6,58,29.80,2.2,West,6.9,-,N/A,,Smoke,260,2012-10-24 12:10:00
6:10 PM,86.0,71.6,62,29.80,2.2,West,5.8,-,N/A,,Smoke,260,2012-10-24 12:40:00
7:10 PM,86.0,73.4,66,29.83,1.9,West,5.8,-,N/A,,Smoke,280,2012-10-24 13:40:00
7:40 PM,86.0,75.2,70,29.83,1.9,NW,4.6,-,N/A,,Smoke,310,2012-10-24 14:10:00
8:10 PM,84.2,75.2,74,29.86,1.6,NW,4.6,-,N/A,,Smoke,320,2012-10-24 14:40:00
8:30 PM,83,76,74,29.83,1,Calm,Calm,,,,Haze,,2012-10-24 15:00:00
8:40 PM,84.2,75.2,74,29.86,1.6,Calm,Calm,-,N/A,,Smoke,0,2012-10-24 15:10:00
9:10 PM,84.2,75.2,74,29.86,1.6,NNW,4.6,-,N/A,,Smoke,330,2012-10-24 15:40:00
9:40 PM,84.2,75.2,74,29.86,1.6,NNW,3.5,-,N/A,,Smoke,340,2012-10-24 16:10:00
10:10 PM,84.2,75.2,74,29.86,1.4,Calm,Calm,-,N/A,,Haze,0,2012-10-24 16:40:00
10:40 PM,84.2,75.2,74,29.86,1.4,ENE,3.5,-,N/A,,Haze,70,2012-10-24 17:10:00
11:10 PM,84.2,75.2,74,29.86,1.4,NE,3.5,-,N/A,,Haze,50,2012-10-24 17:40:00
11:30 PM,80,78,91,29.86,1,Calm,Calm,,,,Haze,,2012-10-24 18:00:00
11:40 PM,84.2,73.4,70,29.86,1.4,East,5.8,-,N/A,,Smoke,100,2012-10-24 18:10:00